This is the latest recevied weather packets stored in our database for station/object KE8GJZ-1. If no packets are shown the sender has not sent any weather packets the latest 10 day(s).
| Time | Temp. | Humidity | Pressure | Rain* | Wind** | Luminosity | Snow |
|---|---|---|---|---|---|---|---|
| 1777872064 | 10.56° C | 69% | 1005.9 hPa | 0 mm | - | 0 W/m² | - |
| 1777871761 | 10.56° C | 69% | 1006 hPa | 0 mm | - | 0 W/m² | - |
| 1777871457 | 10.56° C | 69% | 1005.9 hPa | 0 mm | - | 0 W/m² | - |
| 1777871154 | 10.56° C | 69% | 1006.1 hPa | 0 mm | - | 0 W/m² | - |
| 1777870851 | 10.56° C | 68% | 1006.3 hPa | 0 mm | - | 0 W/m² | - |
| 1777870548 | 10.56° C | 69% | 1006 hPa | 0 mm | - | 0 W/m² | - |
| 1777870243 | 10.56° C | 69% | 1006 hPa | 0 mm | - | 0 W/m² | - |
| 1777869941 | 10.56° C | 68% | 1005.9 hPa | 0 mm | - | 0 W/m² | - |
| 1777869638 | 10.56° C | 68% | 1006 hPa | 0 mm | - | 0 W/m² | - |
| 1777869335 | 10.56° C | 68% | 1006.1 hPa | 0 mm | - | 0 W/m² | - |
| 1777869032 | 10.56° C | 68% | 1006.1 hPa | 0 mm | - | 0 W/m² | - |
| 1777868729 | 10.56° C | 68% | 1006.4 hPa | 0 mm | - | 0 W/m² | - |
| 1777868426 | 10.56° C | 68% | 1006 hPa | 0 mm | - | 0 W/m² | - |
| 1777868122 | 10.56° C | 68% | 1006.1 hPa | 0 mm | - | 0 W/m² | - |
| 1777867818 | 10.56° C | 68% | 1006.4 hPa | 0 mm | - | 0 W/m² | - |
| 1777867516 | 10.56° C | 68% | 1006.6 hPa | 0 mm | - | 0 W/m² | - |
| 1777866909 | 10.56° C | 68% | 1006.6 hPa | 0 mm | - | 0 W/m² | - |
| 1777865698 | 10.56° C | 67% | 1007.2 hPa | 0 mm | - | 0 W/m² | - |
| 1777865395 | 10.56° C | 67% | 1006.7 hPa | 0 mm | - | 0 W/m² | - |
| 1777846603 | 15.56° C | 46% | 1007.7 hPa | 0 mm | - | 68 W/m² | - |
| 1777845996 | 15.56° C | 45% | 1007.8 hPa | 0 mm | - | 85 W/m² | - |
| 1777845693 | 15.56° C | 45% | 1007.9 hPa | 0 mm | - | 87 W/m² | - |
| 1777845390 | 15.56° C | 45% | 1007.9 hPa | 0 mm | - | 74 W/m² | - |
| 1777844481 | 16.11° C | 43% | 1007.8 hPa | 0 mm | - | 86 W/m² | - |
| 1777844180 | 16.11° C | 43% | 1007.5 hPa | 0 mm | - | 138 W/m² | - |
* Rain latest hour (hover to see other rain measurements)
** Current wind speed in m/s (hover to see current wind gust speed)